User: anonymous   Login
Location: Unspecified
(0.0000°N, 0.0000°E)
Time: 01:45:05
(UTC+00:00)
Language:

USA 157 - Orbit

View from above orbital plane
View from above orbital plane
View from above satellite
View from above satellite

Ground track
Ground track

The orbit data is extracted from the following two-line orbital elements,

1 26715U 01009A   17111.21124782 0.00000000  00000-0  00000-0 0    02
2 26715   8.1793  36.6331 0005104 228.1256 131.8318  1.00270000    04
Epoch (UTC): 21 April 2017 05:04:11
Eccentricity: 0.0005104
inclination: 8.1793°
perigee height: 35765 km
apogee height: 35808 km
right ascension of ascending node: 36.6331°
argument of perigee: 228.1256°
revolutions per day: 1.00270000
mean anomaly at epoch: 131.8318°
orbit number at epoch: 0

The dashed part of the orbit path shows where the satellite is in the earth's shadow,  

DLR